El Centro, CA

10:12 AM PDT on July 28, 2017 (GMT -0700)
El Centro Naval Air Facility

Weather History for KNJK - February, 2012

Change the Weather History Date:

Thursday, February 23, 2012

  Actual Average Record
Temperature  
Mean Temperature 65 °F -  
Max Temperature 84 °F 69 °F 84 °F (2002)
Min Temperature 46 °F 48 °F 39 °F (2013)
Growing Degree Days 15 (Base 50)    
Moisture  
Dew Point 38 °F    
Average Humidity 39    
Maximum Humidity 66    
Minimum Humidity 17    
Precipitation  
Precipitation 0.00 in - - ()
Sea Level Pressure  
Sea Level Pressure 29.87 in    
Wind  
Wind Speed 4 mph (SSW)    
Max Wind Speed 10 mph    
Max Gust Speed -    
Visibility 10 miles    
Events      
Averages and records for this station are not official NWS values.
T = Trace of Precipitation, MM = Missing Value Source: NWS Daily Summary

Daily Weather History Graph

Daily Weather History Graph

Search for Another Location

Airport or City:

Trip Planner

Search our weather history database for the weather conditions in past years. The results will help you decide how hot, cold, wet, or windy it might be!

Date:

Astronomy

Feb. 23, 2012 Rise Set
Actual Time 6:17 AM PST 5:34 PM PST
Civil Twilight 5:53 AM PST 5:59 PM PST
Nautical Twilight 5:24 AM PST 6:28 PM PST
Astronomical Twilight 4:55 AM PST 6:56 PM PST
Moon 6:55 AM PST (2/23) 7:33 PM PST (2/23)
Length of Visible Light 12h 06m
Length of Day
11h 16m
Waxing Crescent, 4% of the Moon is Illuminated
Feb 23
Waxing Crescent
Feb 29
First Quarter
Mar 8
Full
Mar 14
Last Quarter
Mar 22
New

Hourly Weather History & Observations

Time (PST) Temp. Dew Point Humidity Pressure Visibility Wind Dir Wind Speed Gust Speed Precip Events Conditions
12:56 AM 55.0 °F 35.1 °F 47% 29.90 in 10.0 mi West 4.6 mph - N/A   Clear
1:56 AM 53.1 °F 34.0 °F 48% 29.88 in 10.0 mi West 6.9 mph - N/A   Clear
2:56 AM 55.0 °F 34.0 °F 45% 29.87 in 10.0 mi SW 3.5 mph - N/A   Clear
3:56 AM 51.1 °F 37.0 °F 59% 29.86 in 10.0 mi WSW 8.1 mph - N/A   Clear
4:56 AM 53.1 °F 35.1 °F 50% 29.85 in 10.0 mi SSW 3.5 mph - N/A   Clear
5:56 AM 46.9 °F 36.0 °F 66% 29.85 in 10.0 mi WSW 4.6 mph - N/A   Clear
6:56 AM 48.0 °F 34.0 °F 58% 29.86 in 10.0 mi Calm Calm - N/A   Clear
7:56 AM 55.0 °F 39.0 °F 55% 29.89 in 10.0 mi Calm Calm - N/A   Clear
8:56 AM 64.0 °F 41.0 °F 43% 29.90 in 10.0 mi Calm Calm - N/A   Partly Cloudy
9:56 AM 68.0 °F 43.0 °F 40% 29.90 in 10.0 mi Calm Calm - N/A   Partly Cloudy
10:56 AM 75.0 °F 39.9 °F 28% 29.89 in 10.0 mi Calm Calm - N/A   Clear
11:55 AM - - N/A% - - North - - N/A   Unknown
11:56 AM 79.0 °F 39.0 °F 24% 29.86 in 10.0 mi SW 3.5 mph - N/A   Clear
12:56 PM 82.9 °F 37.0 °F 19% 29.83 in 10.0 mi Calm Calm - N/A   Partly Cloudy
1:56 PM 82.9 °F 39.9 °F 22% 29.82 in 10.0 mi SSE 3.5 mph - N/A   Partly Cloudy
2:56 PM 84.0 °F 34.0 °F 17% 29.81 in 10.0 mi Calm Calm - N/A   Partly Cloudy
3:56 PM 82.9 °F 39.9 °F 22% 29.81 in 10.0 mi ESE 5.8 mph - N/A   Partly Cloudy
4:56 PM 80.1 °F 39.9 °F 24% 29.81 in 10.0 mi SSE 3.5 mph - N/A   Partly Cloudy
5:56 PM 75.0 °F 39.0 °F 27% 29.83 in 10.0 mi South 4.6 mph - N/A   Scattered Clouds
6:56 PM 71.1 °F 37.9 °F 30% 29.84 in 10.0 mi SSW 3.5 mph - N/A   Scattered Clouds
7:56 PM 66.0 °F 37.0 °F 34% 29.86 in 10.0 mi Calm Calm - N/A   Partly Cloudy
8:56 PM 62.1 °F 39.9 °F 44% 29.88 in 10.0 mi West 5.8 mph - N/A   Partly Cloudy
9:56 PM 59.0 °F 37.9 °F 46% 29.91 in 10.0 mi ENE 10.4 mph - N/A   Partly Cloudy
10:56 PM 61.0 °F 36.0 °F 39% 29.93 in 10.0 mi SE 4.6 mph - N/A   Clear
11:56 PM 57.0 °F 36.0 °F 45% 29.94 in 10.0 mi NW 6.9 mph - N/A   Clear